#timestamp,LO_Frequency,Hit,StdDev 
1514458815.1,286046998.4,N
1514458835.9,286046997.0,N
1514458855.7,286046998.9,N
1514458875.5,286046997.2,N
1514458895.4,286046997.6,N
1514458915.2,286046998.0,N
1514458935.0,286046993.3,N
1514458935.9,286046993.3,N
1514458955.8,286046993.4,N
1514458975.6,286046992.6,N
1514458995.4,286046994.0,N
1514459015.3,286046995.9,N
1514459035.1,286046995.3,N
1514459036.0,286046995.3,N
1514459055.8,286046994.7,N
1514459075.6,286046991.5,N
1514459095.5,286046990.9,N
1514459115.3,286046991.5,N
1514459135.1,286046989.2,Y
1514459155.9,286046993.7,P
1514459175.7,286046993.5,P
1514459195.5,286046991.7,P
1514459215.4,286046993.1,Y
1514459235.2,286046998.1,P
1514459255.0,286046999.8,N
1514459255.9,286046999.8,N
1514459275.8,286047002.2,N
1514459295.6,286047001.3,N
1514459315.4,286047004.0,N
1514459335.3,286047005.4,N
1514459355.1,286047004.7,N
1514459375.8,286047005.4,N
1514459395.7,286047008.1,N
1514459415.5,286047014.9,Y
1514459435.3,286047012.5,P
1514459455.2,286047009.5,N
1514459475.9,286047012.2,N
1514459495.7,286047013.3,Y
1514459515.6,286047003.8,P
1514459535.4,286047006.4,N
1514459555.2,286047010.7,P
1514459575.1,286047008.7,Y
1514459576.0,286047008.7,P
1514459595.8,286047003.6,P
1514459615.6,286047003.3,N
1514459635.5,286047004.6,N
1514459655.3,286047004.8,N
1514459675.1,286047008.8,Y
1514459695.9,286047005.6,P
1514459715.7,286047008.8,P
1514459735.5,286047011.5,P
1514459755.4,286047017.0,Y
1514459775.2,286047008.2,P
1514459795.0,286047009.4,P
1514459795.9,286047009.4,P
1514459815.8,286047012.6,Y
1514459835.6,286047004.2,P
1514459855.4,286047004.3,N
1514459875.3,286047002.0,N
1514459895.1,286046998.5,N
1514459896.0,286046998.5,N
1514459915.8,286047000.4,N
1514459935.7,286047000.1,N
1514459955.5,286046995.1,N
1514459975.3,286046994.8,N
1514459995.2,286046993.1,N
1514460015.9,286046990.1,N
1514460035.7,286046988.6,N
1514460055.6,286046989.0,N
1514460075.4,286046988.8,N
1514460095.2,286046989.3,N
1514460115.0,286046986.9,N
1514460115.9,286046986.9,N
1514460135.8,286046987.0,N
1514460155.6,286046992.2,N
1514460175.4,286046991.9,N
1514460195.3,286046991.0,N
1514460215.1,286046987.7,N
1514460216.0,286046987.7,N
1514460235.8,286046987.5,N
1514460255.7,286046989.6,N
1514460275.5,286046987.7,N
1514460295.3,286046985.1,N
1514460315.2,286046983.9,N
1514460335.9,286046984.4,N
1514460355.7,286046984.4,N
1514460375.5,286046983.0,N
1514460395.4,286046984.9,N
1514460415.2,286046986.8,N
1514460435.0,286046987.4,N
1514460435.9,286046987.4,N
1514460455.8,286046988.1,N
1514460475.6,286046986.9,Y
1514460495.4,286046999.5,P
1514460515.3,286046999.6,N
1514460535.1,286046997.0,N
1514460555.8,286047001.6,N
1514460575.7,286047001.4,N
1514460595.5,286047005.5,N
1514460615.3,286047006.3,N
1514460635.2,286047007.6,N
1514460655.9,286047006.0,N
1514460675.7,286047003.7,N
1514460695.6,286047006.0,N
1514460715.4,286047006.5,N
1514460735.2,286047011.8,N
1514460755.0,286047011.3,N
1514460756.0,286047011.3,N
1514460775.8,286047011.8,N
1514460795.6,286047010.4,N
1514460815.4,286047009.8,N
1514460835.3,286047010.7,N
1514460855.1,286047009.5,N
1514460875.8,286047009.3,N
1514460895.7,286047006.4,N
1514460915.5,286047005.2,N
1514460935.3,286047005.3,N
1514460955.2,286047008.8,N
1514460975.9,286047006.6,N
1514460995.7,286047004.8,N
1514461015.6,286047005.8,N
1514461035.4,286047006.2,N
1514461055.2,286047011.1,N
1514461075.1,286047012.0,Y
1514461076.0,286047012.0,P
1514461095.8,286047004.7,N
1514461115.6,286047009.0,N
1514461135.5,286047008.9,Y
1514461155.3,286047001.0,P
1514461175.1,286047006.0,N
1514461195.8,286047004.3,N
1514461215.7,286047002.6,N
1514461235.5,286047003.0,N
1514461255.3,286047000.6,N
1514461275.2,286047003.9,N
1514461295.9,286047002.0,N
1514461315.7,286047001.6,N
1514461335.6,286047001.1,N
1514461355.4,286047000.9,N
1514461375.2,286047002.1,N
1514461395.1,286047001.8,N
1514461396.0,286047001.8,N
1514461415.8,286047003.9,N
1514461435.6,286047008.9,Y
1514461455.5,286047004.9,P
1514461475.3,286047003.9,P
1514461495.1,286047001.7,N
1514461515.9,286047003.2,N
1514461535.7,286047001.9,N
1514461555.5,286047002.6,N
1514461575.3,286047000.3,N
1514461595.2,286046997.4,N
1514461615.0,286047000.1,N
1514461615.9,286047000.1,N
1514461635.7,286046997.1,N
1514461655.6,286046999.2,N
1514461675.4,286046995.5,N
1514461695.2,286046993.8,N
1514461715.1,286046996.1,N
1514461716.0,286046996.1,N
1514461735.8,286046996.0,N
1514461755.6,286046994.3,N
1514461775.5,286046993.0,N
1514461795.3,286046995.8,N
1514461815.1,286046997.0,N
1514461835.9,286046998.6,N
1514461855.7,286046999.8,N
1514461875.5,286046998.1,N
1514461895.3,286046998.8,N
1514461915.2,286047002.0,N
1514461935.0,286047003.9,N
1514461935.9,286047003.9,N
1514461955.7,286047002.2,N
1514461975.6,286047001.9,N
1514461995.4,286047003.4,N
1514462015.2,286047005.5,N
1514462035.1,286047002.6,N
1514462036.0,286047002.6,N
1514462055.8,286047000.0,N
1514462075.6,286047002.4,N
1514462095.5,286047000.0,N
1514462115.3,286046998.3,N
1514462135.1,286046997.0,N
1514462155.9,286047001.2,N
1514462175.7,286047003.1,N
1514462195.5,286047003.6,N
1514462215.4,286047004.4,N
1514462235.2,286047004.2,N
1514462255.0,286047000.7,N
1514462255.9,286047000.7,N
1514462275.8,286047001.1,N
1514462295.6,286046998.8,N
1514462315.4,286046998.2,N
1514462335.2,286046997.3,N
1514462355.1,286046997.4,N
1514462356.0,286046997.4,N
1514462375.8,286046997.4,N
1514462395.6,286046995.4,N
